FW0979 Weather Reports


time (UTC)temp
C
wind
direction
speed
KPH
gust
KPH
rain 1hr
cm
rain 24hr
cm
rain mn
cm
humidity
%
barometer
mb
20260502123059 6 359 0.0 0.0 0.00 1.75 0.00 90 1023.9
20260502121557 6 359 0.0 0.0 0.00 1.75 0.00 90 1023.5
20260502120105 6 359 0.0 1.6 0.00 1.75 0.00 89 1023.3
20260502114557 6 359 3.2 4.8 0.00 2.03 0.00 89 1023.2
20260502113053 6 359 1.6 4.8 0.00 2.03 0.00 89 1023.2
20260502111551 7 359 1.6 9.7 0.00 2.03 0.00 89 1023.0
20260502110056 7 356 8.0 11.3 0.00 2.03 0.00 89 1023.0
20260502104545 7 359 4.8 9.7 0.00 2.31 0.00 90 1023.1
20260502103044 7 355 3.2 8.0 0.00 2.31 0.00 90 1022.9
20260502101545 7 349 4.8 8.0 0.00 2.31 0.00 91 1022.7
20260502071527 8 347 3.2 6.4 0.00 2.97 0.00 89 1022.5
20260502070026 8 347 4.8 8.0 0.00 2.97 0.00 89 1022.5
20260502064539 8 347 3.2 4.8 0.00 2.97 0.00 89 1022.6
20260502063023 8 347 3.2 4.8 0.00 2.97 0.00 88 1022.5
20260502061515 8 347 1.6 6.4 0.00 2.97 0.00 88 1022.5
20260502060007 8 347 4.8 6.4 0.00 2.97 0.00 88 1022.4
20260502054506 7 347 3.2 8.0 0.00 2.97 2.97 88 1022.4
20260502053007 7 347 3.2 6.4 0.00 2.97 2.97 88 1022.3
20260502051504 7 347 3.2 6.4 0.00 2.97 2.97 88 1022.1
20260502050002 8 344 3.2 6.4 0.00 2.97 2.97 88 1021.8
20260502044506 8 344 1.6 6.4 0.00 2.97 2.97 88 1021.8
20260502043100 8 344 3.2 8.0 0.00 2.97 2.97 87 1021.6
20260502041559 8 344 6.4 11.3 0.00 2.97 2.97 87 1021.5
20260502040107 8 342 6.4 11.3 0.00 2.97 2.97 86 1021.3
20260502034557 8 342 8.0 14.5 0.00 2.97 2.97 87 1021.4
20260502033054 8 333 6.4 11.3 0.00 2.97 2.97 87 1021.0
20260502031609 8 93 3.2 6.4 0.00 2.97 2.97 87 1020.7
20260502030053 8 94 1.6 8.0 0.00 2.97 2.97 86 1020.7
20260502024551 8 98 3.2 6.4 0.00 3.00 2.97 85 1020.7
20260502023053 8 96 3.2 4.8 0.00 3.00 2.97 84 1020.3
20260502021547 8 96 1.6 6.4 0.00 3.00 2.97 83 1019.8
20260502014550 8 96 4.8 8.0 0.00 3.00 2.97 81 1019.2
20260502013041 8 360 6.4 16.1 0.00 3.00 2.97 81 1019.1
20260502011541 9 86 8.0 14.5 0.00 3.00 2.97 81 1018.7
20260502010039 9 72 9.7 19.3 0.00 3.00 2.97 82 1019.0
20260502004542 9 82 12.9 22.5 0.00 3.00 2.97 82 1018.9
20260502003038 8 52 12.9 20.9 0.00 3.00 2.97 82 1018.9
20260502001610 8 360 9.7 22.5 0.03 3.00 2.97 82 1018.9
20260502000036 8 41 16.1 25.7 0.03 3.00 2.97 82 1019.0
20260501234534 8 43 14.5 27.4 0.05 3.00 2.97 84 1018.6
20260501233033 8 48 14.5 25.7 0.08 3.00 2.97 86 1018.6
20260501231534 8 41 16.1 25.7 0.08 2.97 2.92 86 1018.4
20260501230031 10 40 12.9 20.9 0.13 2.97 2.92 88 1018.1
20260501224527 10 62 11.3 22.5 0.10 2.97 2.90 88 1017.9
20260501223025 10 49 11.3 20.9 0.10 2.92 2.87 88 1017.6
20260501221523 9 51 11.3 22.5 0.10 2.90 2.84 86 1017.4
20260501220022 9 53 12.9 24.1 0.08 2.84 2.82 86 1017.1
20260501214522 9 75 17.7 29.0 0.10 2.87 2.82 85 1017.1
20260501213020 10 58 16.1 29.0 0.08 2.84 2.79 86 1017.0
20260501211520 10 360 16.1 27.4 0.05 2.84 2.77 85 1016.9
20260501210030 10 94 17.7 27.4 0.03 2.82 2.74 83 1016.9
20260501204517 10 73 17.7 30.6 0.00 2.79 2.72 80 1016.9
20260501203018 10 79 19.3 35.4 0.00 2.79 2.72 76 1016.8
20260501201517 10 55 19.3 33.8 0.00 2.79 2.72 77 1016.7
20260501200015 10 85 22.5 40.2 0.00 2.79 2.72 77 1016.6
20260501194513 9 75 22.5 33.8 0.00 2.79 2.72 81 1016.5
20260501193012 10 61 19.3 30.6 0.00 2.79 2.72 82 1016.8
20260501191513 9 105 20.9 40.2 0.00 2.79 2.72 81 1016.7
20260501190014 9 101 24.1 37.0 0.00 2.79 2.72 81 1016.5
20260501184511 9 80 22.5 40.2 0.00 2.79 2.72 80 1016.5
20260501183007 9 105 29.0 41.8 0.00 2.79 2.72 81 1016.7
20260501181510 9 360 19.3 35.4 0.00 2.79 2.72 88 1016.8
20260501180005 8 72 24.1 38.6 0.00 2.79 2.72 87 1016.9
20260501174504 8 73 24.1 38.6 0.00 2.79 2.72 90 1016.7
20260501173001 8 95 25.7 48.3 0.03 2.79 2.72 92 1017.0
20260501171559 8 74 20.9 37.0 0.03 2.79 2.72 93 1017.1
20260501170058 8 105 22.5 41.8 0.05 2.79 2.72 93 1017.0
20260501164604 8 120 25.7 41.8 0.10 2.79 2.72 94 1016.8
20260501163050 8 83 25.7 45.1 0.13 2.77 2.69 94 1016.6
20260501161559 9 77 22.5 33.8 0.23 2.77 2.69 95 1016.8
20260501160049 9 94 17.7 33.8 0.25 2.74 2.67 95 1016.7
20260501154546 9 117 16.1 33.8 0.28 2.69 2.62 95 1016.6
20260501153049 8 79 19.3 32.2 0.30 2.64 2.57 94 1016.7
20260501151550 9 103 17.7 32.2 0.30 2.54 2.46 94 1016.6